Date,TemperatureHighF,TemperatureAvgF,TemperatureLowF,DewpointHighF,DewpointAvgF,DewpointLowF,HumidityHigh,HumidityAvg,HumidityLow,PressureMaxIn,PressureMinIn,WindSpeedMaxMPH,WindSpeedAvgMPH,GustSpeedMaxMPH,PrecipitationSumIn
2013-1-1,24,22,19,18,16,13,86,77,70,30.07,29.93,15,7,24,0.00
2013-1-2,27,25,22,23,19,15,86,80,71,30.05,29.92,15,5,22,0.00
2013-1-3,30,27,24,28,23,20,92,84,73,30.01,29.90,21,9,29,0.00
2013-1-4,36,29,27,29,24,22,89,82,72,30.03,29.79,23,13,36,0.00
2013-1-5,38,32,26,32,26,22,87,77,66,30.13,29.80,15,4,21,0.04
2013-1-6,36,32,28,32,27,22,88,82,77,30.18,29.74,14,4,21,0.01
2013-1-7,40,33,27,31,26,21,82,74,63,30.19,29.84,29,11,46,0.05
2013-1-8,41,36,32,33,30,28,90,81,71,30.09,29.91,13,4,21,0.01
2013-1-9,39,37,33,34,30,26,81,74,65,30.35,29.75,23,13,35,0.01
2013-1-10,43,35,25,30,26,22,91,71,51,30.48,30.09,14,3,23,0.00
2013-1-11,44,40,35,43,38,27,97,93,63,30.09,29.60,16,4,26,0.46
2013-1-12,53,45,36,47,40,29,97,82,62,29.91,29.57,22,10,40,0.01
2013-1-13,36,32,28,32,29,25,93,90,78,29.89,29.79,13,2,18,0.03
2013-1-14,28,23,20,25,17,13,93,79,62,30.29,29.90,18,10,29,0.01
2013-1-15,27,25,22,19,17,16,78,71,65,30.27,30.17,18,12,31,0.00
2013-1-16,31,28,22,28,25,18,94,88,79,29.90,29.57,21,12,28,0.00
2013-1-17,22,16,14,18,8,4,85,72,60,30.23,29.90,19,11,27,0.00
2013-1-18,37,21,14,34,15,5,91,80,63,30.27,29.66,16,8,24,0.00
2013-1-19,38,32,28,36,30,24,95,92,85,29.76,29.36,28,4,42,0.38
2013-1-20,28,17,14,24,10,4,90,74,65,30.06,29.39,26,16,43,0.32
2013-1-21,14,10,4,10,6,0,89,86,66,30.01,29.85,19,10,30,0.00
2013-1-22,10,6,3,3,0,-2,84,77,66,30.13,29.96,18,11,25,0.00
2013-1-23,14,12,8,12,8,2,90,84,65,30.15,29.96,13,7,21,0.00
2013-1-24,11,5,-7,6,1,-11,88,83,76,30.58,30.15,8,3,11,0.00
2013-1-25,20,14,6,17,11,2,90,86,78,30.40,29.89,15,5,20,0.00
2013-1-26,26,17,8,20,14,5,92,87,74,30.32,29.96,4,0,6,0.06
2013-1-27,30,25,15,27,21,13,94,84,74,30.34,30.01,9,3,21,0.02
2013-1-28,33,30,28,32,29,26,100,94,92,30.01,29.77,5,1,12,0.00
2013-1-29,50,38,30,49,36,28,97,95,93,29.94,29.43,12,4,18,0.51
2013-1-30,37,32,21,36,31,18,97,96,91,29.42,29.07,7,2,11,0.77
2013-1-31,20,17,15,18,13,11,91,83,78,29.77,29.14,18,9,26,0.01